Regional Weather Roundup
Issued by NWS Raleigh/Durham, NC

Home | Current Version | Previous Version | Text Only | Print | Product List | Glossary On
Versions: 1 2 3 4 5 6 7 8 9 10 11 12 13 14 15 16 17 18 19 20 21 22 23 24 25 26 27 28 29 30 31 32 33 34 35 36 37 38 39 40 41 42 43 44 45 46 47 48 49 50
000
ASUS42 KRAH 271710
RWRRAH
NORTH CAROLINA WEATHER ROUNDUP
NATIONAL WEATHER SERVICE RALEIGH NC
100 PM EDT MON APR 27 2015

NOTE: "FAIR" INDICATES FEW OR NO CLOUDS BELOW 12,000 FEET WITH NO
SIGNIFICANT WEATHER AND/OR OBSTRUCTIONS TO VISIBILITY.

NCZ001-053-055-056-065-067-271800-
WESTERN NORTH CAROLINA

CITY           SKY/WX    TMP DP  RH WIND       PRES   REMARKS
ASHEVILLE      SUNNY     59  31  34 N13G21    29.89F
JEFFERSON      SUNNY     50  24  36 NW8       29.89S
MORGANTON      SUNNY     64  29  26 N12G17    29.91F
HICKORY        SUNNY     62  35  36 MISG      29.86F
RUTHERFORDTON  PTSUNNY   63  38  40 CALM      29.87F
MOUNT AIRY     SUNNY     60  33  36 NW12G18   29.88F
BOONE          MOSUNNY   51  25  36 NW3G18    29.90F
$$

NCZ021-022-025-041-071-084-088-271800-
CENTRAL NORTH CAROLINA

CITY           SKY/WX    TMP DP  RH WIND       PRES   REMARKS
CHARLOTTE      MOSUNNY   65  38  36 NW9       29.86F
GREENSBORO     MOSUNNY   64  34  32 NW14G25   29.83F
WINSTON-SALEM  SUNNY     61  32  33 W8        29.85F
RALEIGH-DURHAM MOSUNNY   64  37  36 W9        29.83F
FORT BRAGG     MOSUNNY   66  39  37 N10       29.82F
FAYETTEVILLE   PTSUNNY   66  42  41 W12       29.83F
BURLINGTON     MOSUNNY   65  35  33 W14G20    29.83F
LAURINBURG     PTSUNNY   65  41  41 N12G17    29.85S
$$

NCZ011-015-027-028-043-044-047-080-103-271800-
NORTHEASTERN NORTH CAROLINA

CITY           SKY/WX    TMP DP  RH WIND       PRES   REMARKS
ROCKY MT-WILSO MOSUNNY   67  37  33 NW14G21   29.81F
GREENVILLE     MOSUNNY   66  43  42 W8G16     29.82F
WASHINGTON     MOSUNNY   65  43  44 W8        29.79F
ELIZABETH CITY MOSUNNY   66  42  41 W16G24    29.76F
MANTEO         SUNNY     64  44  48 NW8       29.78F
CAPE HATTERAS  SUNNY     61  40  45 NW8       29.79S
$$

NCZ078-087-090-091-093-098-101-271800-
SOUTHEASTERN NORTH CAROLINA

CITY           SKY/WX    TMP DP  RH WIND       PRES   REMARKS
LUMBERTON      MOSUNNY   66  47  50 NW10      29.83F
GOLDSBORO      PTSUNNY   67  42  41 NW8       29.78F
KINSTON        MOSUNNY   66  41  39 NW8       29.81F
KENANSVILLE    MOSUNNY   66  40  38 W3G18     29.83F
NEW BERN       MOSUNNY   69  42  37 NW10      29.82S
CHERRY POINT   MOSUNNY   67  41  38 N8        29.81S
BEAUFORT       SUNNY     67  40  37 NW12      29.80S
JACKSONVILLE   SUNNY     67  38  34 N9        29.81F
WILMINGTON     SUNNY     68  40  35 NW9       29.82F
$$




USA.gov is the U.S. government's official web portal to all federal, state and local government web resources and services.